Weather reports worldwide

Advertisment
Kew Gardens, United Kingdom (99095): temperature & dewpoint: 23.09.2020 02:00:00 - 29.09.2020 02:00:00 (BST)Kew Gardens, United Kingdom (99095): temperature -20cm & temperature -100cm: 23.09.2020 02:00:00 - 29.09.2020 02:00:00 (BST)Kew Gardens, United Kingdom (99095): precipitation: 23.09.2020 02:00:00 - 29.09.2020 02:00:00 (BST)
Date & Time tt [°C] td [°C] tt -20cm [°C] tt -100cm [°C] rr [mm]
29.09.2020 02:00:00 - - - - -
29.09.2020 01:00:00 14,7 13,9 - - 0,0
29.09.2020 00:00:00 14,8 13,8 - - -
28.09.2020 23:00:00 15,1 13,8 - - 0,0
28.09.2020 22:00:00 15,0 13,8 - - 0,0
28.09.2020 21:00:00 12,1 10,6 - - 0,0
28.09.2020 20:00:00 12,6 10,5 - - 0,0
28.09.2020 19:00:00 14,9 10,9 - - 0,0
28.09.2020 18:00:00 16,8 11,0 - - -
28.09.2020 17:00:00 17,4 10,8 - - -
28.09.2020 16:00:00 17,5 9,9 - - 0,0
28.09.2020 15:00:00 17,4 8,5 - - 0,0
28.09.2020 14:00:00 16,9 5,9 - - 0,0
28.09.2020 13:00:00 15,9 4,7 - - 0,0
28.09.2020 12:00:00 14,1 4,8 - - -
28.09.2020 11:00:00 12,7 5,5 - - 0,0
28.09.2020 10:00:00 11,1 5,0 14,4 17,4 0,0
28.09.2020 09:00:00 9,5 5,0 - - 0,0
28.09.2020 08:00:00 8,6 5,6 - - 0,0
28.09.2020 07:00:00 10,2 5,9 - - 0,0
28.09.2020 06:00:00 10,4 6,0 - - -
28.09.2020 05:00:00 10,4 6,4 - - 0,0
28.09.2020 04:00:00 10,5 6,5 - - 0,0
28.09.2020 03:00:00 10,4 6,9 - - 0,0
28.09.2020 02:00:00 11,2 7,1 - - 0,0
28.09.2020 01:00:00 11,8 7,5 - - 0,0
28.09.2020 00:00:00 12,0 7,6 - - 0,0
27.09.2020 23:00:00 12,1 7,5 - - 0,0
27.09.2020 22:00:00 12,3 7,5 - - 0,0
27.09.2020 21:00:00 12,5 7,2 - - -
27.09.2020 20:00:00 12,5 6,9 - - 0,0
27.09.2020 19:00:00 12,7 6,9 - - 0,0
27.09.2020 18:00:00 13,0 7,0 - - 0,0
27.09.2020 17:00:00 13,7 7,3 - - -
27.09.2020 16:00:00 13,9 7,3 - - 0,0
27.09.2020 15:00:00 13,8 7,5 - - 0,0
27.09.2020 14:00:00 13,7 7,5 - - 0,0
27.09.2020 13:00:00 13,4 7,2 - - 0,0
27.09.2020 12:00:00 12,9 6,9 - - 0,0
27.09.2020 11:00:00 12,2 6,7 - - 0,0
27.09.2020 10:00:00 11,3 6,3 - - 0,0
27.09.2020 09:00:00 10,9 6,0 - - -
27.09.2020 08:00:00 10,8 5,6 - - 0,0
27.09.2020 07:00:00 10,9 5,3 - - 0,0
27.09.2020 06:00:00 10,8 5,2 - - 0,0
27.09.2020 05:00:00 10,9 5,2 - - 0,0
27.09.2020 04:00:00 10,9 5,3 - - 0,0
27.09.2020 03:00:00 11,0 5,5 - - 0,0
27.09.2020 02:00:00 11,1 5,5 - - 0,0
27.09.2020 01:00:00 11,0 5,6 - - 0,0
27.09.2020 00:00:00 11,3 5,7 - - 0,0
26.09.2020 23:00:00 11,5 5,9 - - 0,0
26.09.2020 22:00:00 11,7 5,9 - - 0,0
26.09.2020 21:00:00 11,5 6,6 - - 0,0
26.09.2020 20:00:00 11,2 7,1 - - 0,0
26.09.2020 19:00:00 10,8 7,5 - - 0,0
26.09.2020 18:00:00 11,0 6,7 - - 0,0
26.09.2020 17:00:00 12,1 5,7 - - 0,0
26.09.2020 16:00:00 12,7 4,2 - - 0,0
26.09.2020 15:00:00 12,5 4,5 - - 0,0
26.09.2020 14:00:00 12,4 4,3 - - 0,0
26.09.2020 13:00:00 12,7 3,1 - - 0,0
26.09.2020 12:00:00 12,4 3,4 - - 0,0
26.09.2020 11:00:00 11,4 3,1 - - 0,0
26.09.2020 10:00:00 10,1 2,7 - - 0,0
26.09.2020 09:00:00 8,7 2,0 - - 0,0
26.09.2020 08:00:00 7,1 1,6 - - 0,0
26.09.2020 07:00:00 6,9 1,7 - - 0,0
26.09.2020 06:00:00 7,3 2,2 - - 0,0
26.09.2020 05:00:00 7,6 2,8 - - 0,0
26.09.2020 04:00:00 8,0 3,5 - - 0,0
26.09.2020 03:00:00 8,3 4,1 - - 0,0
26.09.2020 02:00:00 8,8 4,7 - - 0,0
26.09.2020 01:00:00 9,7 3,8 - - 0,0
26.09.2020 00:00:00 10,3 4,4 - - 0,0
25.09.2020 23:00:00 10,9 4,6 - - 0,0
25.09.2020 22:00:00 11,7 3,9 - - 0,0
25.09.2020 21:00:00 11,8 3,8 - - -
25.09.2020 20:00:00 12,3 3,5 - - 0,0
25.09.2020 19:00:00 13,2 2,0 - - 0,0
25.09.2020 18:00:00 14,1 1,2 - - 0,0
25.09.2020 17:00:00 15,0 2,7 - - 0,0
25.09.2020 16:00:00 14,3 2,2 - - 0,0
25.09.2020 15:00:00 14,2 3,4 - - 0,0
25.09.2020 14:00:00 14,1 3,0 - - 0,2
25.09.2020 13:00:00 13,5 5,0 - - 0,0
25.09.2020 12:00:00 12,7 4,7 - - 0,0
25.09.2020 11:00:00 11,6 5,4 - - 0,0
25.09.2020 10:00:00 10,1 5,8 15,2 18,4 0,0
25.09.2020 09:00:00 9,1 6,5 - - 0,4
25.09.2020 08:00:00 8,7 7,0 - - -
25.09.2020 07:00:00 8,7 6,8 - - 0,0
25.09.2020 06:00:00 7,7 6,6 - - 0,0
25.09.2020 05:00:00 6,3 5,5 - - 0,0
25.09.2020 04:00:00 6,5 5,4 - - 0,0
25.09.2020 03:00:00 7,2 6,5 - - 0,0
25.09.2020 02:00:00 6,0 5,8 - - 0,0
25.09.2020 01:00:00 6,1 5,8 - - 0,0
25.09.2020 00:00:00 6,0 5,5 - - 0,0
24.09.2020 23:00:00 6,5 5,7 - - 0,0
24.09.2020 22:00:00 7,6 6,5 - - 0,0
24.09.2020 21:00:00 9,0 7,3 - - 0,0
24.09.2020 20:00:00 10,2 7,9 - - -
24.09.2020 19:00:00 11,4 7,5 - - 0,0
24.09.2020 18:00:00 11,9 7,2 - - 0,0
24.09.2020 17:00:00 12,3 7,5 - - 0,0
24.09.2020 16:00:00 11,5 8,1 - - 0,0
24.09.2020 15:00:00 10,8 8,4 - - 1,2
24.09.2020 14:00:00 12,3 5,6 - - 0,0
24.09.2020 13:00:00 15,5 4,9 - - 0,0
24.09.2020 12:00:00 16,0 7,3 - - 0,0
24.09.2020 11:00:00 13,7 7,3 - - 0,0
24.09.2020 10:00:00 13,0 8,5 16,7 18,7 0,0
24.09.2020 09:00:00 11,7 9,3 - - 0,0
24.09.2020 08:00:00 10,0 8,9 - - 0,2
24.09.2020 07:00:00 9,6 9,1 - - 2,6
24.09.2020 06:00:00 9,0 8,6 - - 1,0
24.09.2020 05:00:00 8,0 7,5 - - -
24.09.2020 04:00:00 6,7 6,0 - - 0,0
24.09.2020 03:00:00 7,3 6,3 - - 0,0
24.09.2020 02:00:00 7,7 5,8 - - 0,0
24.09.2020 01:00:00 9,0 6,6 - - 0,0
24.09.2020 00:00:00 10,0 7,7 - - 0,0
23.09.2020 23:00:00 11,4 8,3 - - 0,0
23.09.2020 22:00:00 12,1 9,8 - - 0,2
23.09.2020 21:00:00 12,3 9,4 - - 0,0
23.09.2020 20:00:00 13,9 13,1 - - 0,0
23.09.2020 19:00:00 14,3 13,5 - - 0,4
23.09.2020 18:00:00 14,6 12,6 - - 0,8
23.09.2020 17:00:00 17,5 14,3 - - 0,2
23.09.2020 16:00:00 16,8 13,2 - - 0,0
23.09.2020 15:00:00 17,4 14,8 - - 0,0
23.09.2020 14:00:00 16,8 15,1 - - 1,0
23.09.2020 13:00:00 16,4 14,0 - - 0,6
23.09.2020 12:00:00 18,4 13,2 - - 0,0
23.09.2020 11:00:00 17,8 13,4 - - 0,0
23.09.2020 10:00:00 16,6 14,7 18,2 18,7 0,0
23.09.2020 09:00:00 15,8 14,6 - - 0,0
23.09.2020 08:00:00 15,5 14,2 - - 0,0
23.09.2020 07:00:00 15,4 14,3 - - 0,0
23.09.2020 06:00:00 16,2 15,4 - - 1,0
23.09.2020 05:00:00 15,9 14,5 - - 0,0
23.09.2020 04:00:00 15,7 14,1 - - -
23.09.2020 03:00:00 15,8 14,0 - - 0,0
23.09.2020 02:00:00 15,9 13,2 - - 0,0

tt = temperature
td = dewpoint
tt -20cm = temperature -20cm
tt -100cm = temperature -100cm
rr = precipitation

Next stations